Home > Weather > Madison > Past weeks

Flag for USA Past Weather in Madison, Wisconsin, USA — Yesterday and Last 2 Weeks

Now
72 °F

Scattered clouds.


Feels Like: 73 °F
Forecast: 65 / 90 °F
Wind: 10 mph from South

Location: Dane County Regional-Truax Field

Current Time: Jun 25, 2016 at 9:16:56 AM

Latest Report: Jun 25, 2016 at 7:53 AM


Visibility: 10 mi

Pressure: 30.04 "Hg

Humidity: 76%

Dew Point: 64 °F

Location of MadisonLocation

Past Weather in Madison — Graph

°F

Madison Temperature Yesterday

Maximum temperature yesterday: 82 °F (at 4:53 PM)
Minimum temperature yesterday: 55 °F (at 2:53 AM)
Average temperature yesterday: 71 °F

High & Low Weather Summary for the Past Weeks

 TemperatureHumidityPressure
High90 °F (Jun 10, 3:53 PM)100% (Jun 17, 2:53 AM)30.24 "Hg (Jun 17, 2:53 AM)
Low55 °F (Jun 24, 2:53 AM)26% (Jun 20, 4:53 PM)29.65 "Hg (Jun 15, 6:53 PM)
Average72 °F66%29.97 "Hg
* Reported Jun 10 7:53 AM — Jun 25 7:53 AM, Madison, Weather by CustomWeather, © 2016

Note: Actual official high and low records may vary slightly from our data, if they occured in-between our weather recording intervals... More about our weather records

Advertising

Madison Weather History for the Previous 24 Hours

Scroll right to see more
 ConditionsComfort  
Time TempWeatherWind HumidityBarometerVisibility
7:53 AM
Sat, Jun 25
72 °FScattered clouds.10 mph76%30.04 "Hg10 mi
6:53 AM70 °FPassing clouds.8 mph73%30.04 "Hg10 mi
5:53 AM67 °FPassing clouds.8 mph76%30.03 "Hg10 mi
4:53 AM68 °FClear.7 mph73%30.02 "Hg10 mi
3:53 AM68 °FClear.7 mph73%30.03 "Hg10 mi
2:53 AM69 °FClear.7 mph70%30.03 "Hg10 mi
1:53 AM69 °FClear.8 mph70%30.03 "Hg10 mi
12:53 AM71 °FClear.N/A68%30.04 "Hg10 mi
11:53 PM
Fri, Jun 24
73 °FClear.8 mph66%30.03 "Hg10 mi
10:53 PM73 °FClear.7 mph71%30.03 "Hg10 mi
9:53 PM75 °FPassing clouds.5 mph66%30.03 "Hg10 mi
8:53 PM78 °FPassing clouds.6 mph58%30.01 "Hg10 mi
7:53 PM80 °FPassing clouds.10 mph52%30.01 "Hg10 mi
6:53 PM81 °FPassing clouds.10 mph49%30.01 "Hg10 mi
5:53 PM82 °FScattered clouds.7 mph49%30.01 "Hg10 mi
4:53 PM82 °FScattered clouds.9 mph49%30.03 "Hg10 mi
3:53 PM81 °FPartly sunny.8 mph47%30.04 "Hg10 mi
2:53 PM80 °FBroken clouds.No wind47%30.06 "Hg10 mi
1:53 PM80 °FBroken clouds.7 mph47%30.08 "Hg10 mi
12:53 PM78 °FScattered clouds.5 mph46%30.08 "Hg10 mi
11:53 AM77 °FPassing clouds.6 mph48%30.09 "Hg10 mi
10:53 AM76 °FPassing clouds.5 mph47%30.09 "Hg10 mi
9:53 AM73 °FPassing clouds.6 mph51%30.08 "Hg10 mi
Weather by CustomWeather, © 2016

See weather overviewHow to use our weather pages